User: anonymous   Login
Location: Pleiades Observatory
(40.1297°N, 91.5238°W)
Time: 22:03:24
(UTC-06:00)
Language:

Cosmos 1842 Rocket - Orbit

View from above orbital plane
View from above orbital plane
View from above satellite
View from above satellite

Ground track
Ground track

The orbit data is extracted from the following two-line orbital elements,

1 17912U 87038B   17327.40513109 +.00000111 +00000-0 +10696-4 0  9998
2 17912 082.5028 260.9724 0021737 068.0042 292.3479 14.82955338630246
Epoch (UTC): 23 November 2017 09:43:23
Eccentricity: 0.0021737
inclination: 82.5028°
perigee height: 605 km
apogee height: 635 km
right ascension of ascending node: 260.9724°
argument of perigee: 68.0042°
revolutions per day: 14.82955338
mean anomaly at epoch: 292.3479°
orbit number at epoch: 63024

The dashed part of the orbit path shows where the satellite is in the earth's shadow,  

DLR